| time (UTC) | temp C | wind direction | speed KPH | gust KPH | rain 1hr cm | rain 24hr cm | rain mn cm | humidity % | barometer mb |
| 20260507093357 | 15 | 32 | 12.9 | 20.9 | 0.00 | 0.00 | 0.00 | 58 | 1015.8 |
| 20260507092631 | 15 | 6 | 14.5 | 19.3 | 0.00 | 0.00 | 0.00 | 59 | 1015.8 |
| 20260507092128 | 16 | 0 | 11.3 | 19.3 | 0.00 | 0.00 | 0.00 | 59 | 1015.8 |
| 20260507091628 | 16 | 359 | 11.3 | 17.7 | 0.00 | 0.00 | 0.00 | 57 | 1015.9 |
| 20260507091129 | 17 | 3 | 14.5 | 17.7 | 0.00 | 0.00 | 0.00 | 54 | 1015.8 |
| 20260507090628 | 17 | 359 | 8.0 | 19.3 | 0.00 | 0.00 | 0.00 | 56 | 1015.7 |
| 20260507090350 | 17 | 30 | 9.7 | 19.3 | 0.00 | 0.00 | 0.00 | 57 | 1015.8 |
| 20260507085626 | 17 | 0 | 6.4 | 24.1 | 0.00 | 0.00 | 0.00 | 58 | 1015.7 |
| 20260507085125 | 17 | 19 | 8.0 | 24.1 | 0.00 | 0.00 | 0.00 | 57 | 1015.8 |
| 20260507084627 | 17 | 4 | 14.5 | 20.9 | 0.00 | 0.00 | 0.00 | 56 | 1015.6 |
| 20260507084125 | 17 | 13 | 12.9 | 19.3 | 0.00 | 0.00 | 0.00 | 57 | 1015.6 |
| 20260507083625 | 17 | 353 | 11.3 | 22.5 | 0.00 | 0.00 | 0.00 | 55 | 1015.6 |
| 20260507083123 | 17 | 17 | 8.0 | 22.5 | 0.00 | 0.00 | 0.00 | 60 | 1015.7 |
| 20260507082623 | 17 | 16 | 8.0 | 17.7 | 0.00 | 0.00 | 0.00 | 60 | 1015.7 |
| 20260507082350 | 17 | 4 | 11.3 | 17.7 | 0.00 | 0.00 | 0.00 | 60 | 1015.7 |
| 20260507081622 | 16 | 13 | 11.3 | 17.7 | 0.00 | 0.00 | 0.00 | 62 | 1015.7 |
| 20260507081121 | 16 | 359 | 12.9 | 17.7 | 0.00 | 0.00 | 0.00 | 63 | 1015.6 |
| 20260507080622 | 16 | 57 | 6.4 | 17.7 | 0.00 | 0.00 | 0.00 | 65 | 1015.6 |
| 20260507080353 | 15 | 33 | 6.4 | 20.9 | 0.00 | 0.00 | 0.00 | 67 | 1015.6 |
| 20260507075620 | 15 | 18 | 6.4 | 20.9 | 0.00 | 0.00 | 0.00 | 69 | 1015.5 |
| 20260507075121 | 14 | 2 | 9.7 | 17.7 | 0.00 | 0.00 | 0.00 | 72 | 1015.4 |
| 20260507074618 | 12 | 16 | 12.9 | 17.7 | 0.00 | 0.00 | 0.00 | 77 | 1015.5 |
| 20260507074118 | 11 | 26 | 9.7 | 19.3 | 0.00 | 0.00 | 0.00 | 80 | 1015.5 |
| 20260507073621 | 11 | 5 | 8.0 | 19.3 | 0.00 | 0.00 | 0.00 | 81 | 1015.5 |
| 20260507073118 | 11 | 7 | 12.9 | 19.3 | 0.00 | 0.00 | 0.00 | 82 | 1015.6 |
| 20260507072616 | 11 | 9 | 14.5 | 20.9 | 0.00 | 0.00 | 0.00 | 82 | 1015.7 |
| 20260507072115 | 10 | 3 | 12.9 | 25.7 | 0.00 | 0.00 | 0.00 | 83 | 1015.5 |
| 20260507071618 | 10 | 359 | 20.9 | 25.7 | 0.00 | 0.00 | 0.00 | 84 | 1015.4 |
| 20260507071102 | 10 | 351 | 14.5 | 22.5 | 0.00 | 0.00 | 0.00 | 85 | 1015.5 |
| 20260507070602 | 10 | 357 | 16.1 | 22.5 | 0.00 | 0.00 | 0.00 | 85 | 1015.5 |
| 20260507070104 | 10 | 29 | 12.9 | 22.5 | 0.00 | 0.00 | 0.00 | 86 | 1015.5 |
| 20260507065602 | 10 | 7 | 16.1 | 20.9 | 0.00 | 0.00 | 0.00 | 87 | 1015.4 |
| 20260507065334 | 9 | 3 | 8.0 | 20.9 | 0.00 | 0.00 | 0.00 | 88 | 1015.5 |
| 20260507064604 | 9 | 9 | 17.7 | 19.3 | 0.00 | 0.00 | 0.00 | 89 | 1015.4 |
| 20260507064103 | 9 | 4 | 14.5 | 19.3 | 0.00 | 0.00 | 0.00 | 91 | 1015.4 |
| 20260507063604 | 8 | 3 | 11.3 | 19.3 | 0.00 | 0.00 | 0.00 | 92 | 1015.3 |
| 20260507063332 | 8 | 353 | 14.5 | 17.7 | 0.00 | 0.00 | 0.00 | 94 | 1015.2 |
| 20260507062614 | 8 | 353 | 11.3 | 14.5 | 0.00 | 0.00 | 0.00 | 95 | 1015.2 |
| 20260507062606 | 8 | 14 | 16.1 | 17.7 | 0.00 | 0.00 | 0.00 | 94 | 1015.1 |
| 20260507061602 | 8 | 0 | 6.4 | 12.9 | 0.00 | 0.00 | 0.00 | 95 | 1015.2 |
| 20260507061103 | 8 | 349 | 6.4 | 9.7 | 0.00 | 0.00 | 0.00 | 95 | 1015.2 |
| 20260507060830 | 7 | 355 | 6.4 | 9.7 | 0.00 | 0.00 | 0.00 | 95 | 1015.2 |
| 20260507055823 | 7 | 350 | 9.7 | 11.3 | 0.00 | 0.00 | 0.00 | 95 | 1015.1 |
| 20260507055102 | 7 | 355 | 9.7 | 12.9 | 0.00 | 0.00 | 0.00 | 95 | 1014.9 |
| 20260507054603 | 7 | 354 | 11.3 | 12.9 | 0.00 | 0.00 | 0.00 | 95 | 1015.1 |
| 20260507054102 | 7 | 352 | 11.3 | 12.9 | 0.00 | 0.00 | 0.00 | 94 | 1015.0 |
| 20260507053603 | 7 | 356 | 8.0 | 9.7 | 0.00 | 0.00 | 0.00 | 94 | 1014.8 |
| 20260507053103 | 7 | 358 | 6.4 | 9.7 | 0.00 | 0.00 | 0.00 | 94 | 1014.8 |
| 20260507052604 | 7 | 358 | 6.4 | 9.7 | 0.00 | 0.00 | 0.00 | 93 | 1014.9 |
| 20260507052328 | 7 | 357 | 8.0 | 8.0 | 0.00 | 0.00 | 0.00 | 93 | 1014.8 |
| 20260507051601 | 7 | 355 | 8.0 | 8.0 | 0.00 | 0.00 | 0.00 | 93 | 1014.7 |
| 20260507051104 | 7 | 357 | 6.4 | 8.0 | 0.00 | 0.00 | 0.00 | 93 | 1014.8 |
| 20260507050600 | 7 | 4 | 6.4 | 8.0 | 0.00 | 0.00 | 0.00 | 93 | 1014.8 |
| 20260507050100 | 7 | 358 | 6.4 | 6.4 | 0.00 | 0.00 | 0.00 | 93 | 1014.6 |
| 20260507045826 | 7 | 353 | 4.8 | 6.4 | 0.00 | 0.00 | 0.00 | 93 | 1014.6 |
| 20260507045059 | 7 | 0 | 6.4 | 6.4 | 0.00 | 0.00 | 0.00 | 92 | 1014.7 |
| 20260507044558 | 7 | 356 | 4.8 | 9.7 | 0.00 | 0.00 | 0.00 | 92 | 1014.5 |
| 20260507044057 | 7 | 351 | 6.4 | 11.3 | 0.00 | 0.00 | 0.00 | 92 | 1014.3 |
| 20260507043557 | 7 | 350 | 8.0 | 11.3 | 0.00 | 0.00 | 0.00 | 92 | 1014.3 |
| 20260507043056 | 7 | 355 | 9.7 | 11.3 | 0.00 | 0.00 | 0.00 | 91 | 1014.4 |
| 20260507042557 | 7 | 358 | 8.0 | 9.7 | 0.00 | 0.00 | 0.00 | 91 | 1014.2 |
| 20260507042055 | 7 | 0 | 6.4 | 11.3 | 0.00 | 0.00 | 0.00 | 90 | 1014.2 |
| 20260507041556 | 7 | 9 | 8.0 | 11.3 | 0.00 | 0.00 | 0.00 | 90 | 1014.2 |
| 20260507041054 | 7 | 12 | 9.7 | 12.9 | 0.00 | 0.00 | 0.00 | 90 | 1014.1 |
| 20260507040553 | 7 | 14 | 9.7 | 14.5 | 0.00 | 0.00 | 0.00 | 90 | 1014.1 |
| 20260507040054 | 7 | 21 | 8.0 | 14.5 | 0.00 | 0.00 | 0.00 | 90 | 1013.9 |
| 20260507035553 | 7 | 357 | 9.7 | 14.5 | 0.00 | 0.00 | 0.00 | 89 | 1014.1 |
| 20260507035052 | 8 | 12 | 9.7 | 14.5 | 0.00 | 0.00 | 0.00 | 89 | 1014.1 |
| 20260507034551 | 8 | 5 | 9.7 | 16.1 | 0.00 | 0.00 | 0.00 | 88 | 1014.2 |
| 20260507034102 | 8 | 20 | 11.3 | 20.9 | 0.00 | 0.00 | 0.00 | 88 | 1014.0 |
| 20260507034054 | 8 | 352 | 11.3 | 20.9 | 0.00 | 0.00 | 0.00 | 88 | 1014.2 |
| 20260507033051 | 8 | 16 | 14.5 | 20.9 | 0.00 | 0.00 | 0.00 | 88 | 1013.9 |
| 20260507032550 | 8 | 13 | 12.9 | 22.5 | 0.00 | 0.00 | 0.00 | 88 | 1013.9 |
| 20260507032328 | 8 | 18 | 14.5 | 22.5 | 0.00 | 0.00 | 0.00 | 88 | 1013.6 |
| 20260507031550 | 8 | 10 | 14.5 | 20.9 | 0.00 | 0.00 | 0.00 | 88 | 1013.8 |
| 20260507031047 | 8 | 2 | 17.7 | 20.9 | 0.00 | 0.00 | 0.00 | 87 | 1013.7 |
| 20260507030547 | 8 | 2 | 14.5 | 19.3 | 0.00 | 0.00 | 0.00 | 87 | 1013.8 |
| 20260507030047 | 8 | 2 | 14.5 | 19.3 | 0.00 | 0.00 | 0.00 | 87 | 1013.7 |
| 20260507025546 | 8 | 20 | 12.9 | 19.3 | 0.00 | 0.00 | 0.00 | 87 | 1013.7 |
| 20260507025320 | 8 | 14 | 14.5 | 19.3 | 0.00 | 0.00 | 0.00 | 87 | 1013.8 |
| 20260507024545 | 8 | 10 | 14.5 | 20.9 | 0.00 | 0.00 | 0.00 | 87 | 1013.7 |
| 20260507024044 | 8 | 6 | 17.7 | 20.9 | 0.00 | 0.00 | 0.00 | 87 | 1013.7 |
| 20260507023530 | 8 | 21 | 12.9 | 16.1 | 0.00 | 0.00 | 0.00 | 87 | 1013.7 |
| 20260507023030 | 8 | 17 | 14.5 | 20.9 | 0.00 | 0.00 | 0.00 | 87 | 1013.7 |
| 20260507022530 | 8 | 21 | 14.5 | 20.9 | 0.00 | 0.00 | 0.00 | 87 | 1013.6 |
| 20260507022030 | 8 | 33 | 12.9 | 19.3 | 0.00 | 0.00 | 0.00 | 87 | 1013.6 |
| 20260507021532 | 8 | 24 | 11.3 | 19.3 | 0.00 | 0.00 | 0.00 | 87 | 1013.5 |
| 20260507021030 | 8 | 5 | 14.5 | 19.3 | 0.00 | 0.00 | 0.00 | 87 | 1013.4 |
| 20260507020531 | 9 | 27 | 12.9 | 19.3 | 0.00 | 0.00 | 0.00 | 87 | 1013.3 |
| 20260507020030 | 9 | 348 | 14.5 | 19.3 | 0.00 | 0.00 | 0.00 | 87 | 1013.5 |
| 20260507015532 | 9 | 13 | 16.1 | 19.3 | 0.00 | 0.00 | 0.00 | 87 | 1013.3 |
| 20260507015029 | 9 | 14 | 12.9 | 19.3 | 0.00 | 0.00 | 0.00 | 87 | 1013.2 |
| 20260507014758 | 9 | 20 | 14.5 | 19.3 | 0.00 | 0.00 | 0.00 | 87 | 1013.1 |
| 20260507014257 | 9 | 357 | 16.1 | 16.1 | 0.00 | 0.00 | 0.00 | 86 | 1013.3 |
| 20260507013757 | 9 | 352 | 14.5 | 17.7 | 0.00 | 0.00 | 0.00 | 86 | 1013.2 |
| 20260507013030 | 9 | 355 | 11.3 | 17.7 | 0.00 | 0.00 | 0.00 | 85 | 1013.3 |
| 20260507012532 | 9 | 3 | 11.3 | 19.3 | 0.00 | 0.00 | 0.00 | 85 | 1013.3 |
| 20260507012030 | 9 | 352 | 14.5 | 19.3 | 0.00 | 0.00 | 0.00 | 85 | 1013.0 |
| 20260507011530 | 9 | 11 | 14.5 | 17.7 | 0.00 | 0.00 | 0.00 | 85 | 1013.2 |
| 20260507011030 | 9 | 351 | 14.5 | 17.7 | 0.00 | 0.00 | 0.00 | 85 | 1013.3 |
| 20260507010530 | 9 | 6 | 12.9 | 16.1 | 0.00 | 0.00 | 0.00 | 84 | 1013.2 |
| 20260507010032 | 9 | 27 | 12.9 | 20.9 | 0.00 | 0.00 | 0.00 | 83 | 1013.2 |
| 20260507005532 | 10 | 0 | 12.9 | 20.9 | 0.00 | 0.00 | 0.00 | 83 | 1013.2 |
| 20260507005030 | 10 | 8 | 9.7 | 19.3 | 0.00 | 0.00 | 0.00 | 83 | 1013.1 |
| 20260507004531 | 10 | 355 | 12.9 | 19.3 | 0.00 | 0.00 | 0.00 | 82 | 1013.0 |
| 20260507004030 | 10 | 17 | 11.3 | 19.3 | 0.00 | 0.00 | 0.00 | 81 | 1012.9 |
| 20260507003531 | 10 | 12 | 14.5 | 17.7 | 0.00 | 0.00 | 0.00 | 81 | 1013.0 |
| 20260507003301 | 10 | 0 | 12.9 | 20.9 | 0.00 | 0.00 | 0.00 | 80 | 1013.0 |
| 20260507002530 | 10 | 358 | 20.9 | 22.5 | 0.00 | 0.00 | 0.00 | 80 | 1012.8 |
| 20260507002030 | 10 | 9 | 14.5 | 24.1 | 0.00 | 0.00 | 0.00 | 79 | 1013.0 |
| 20260507001528 | 10 | 351 | 16.1 | 24.1 | 0.00 | 0.00 | 0.00 | 79 | 1012.9 |
| 20260507001027 | 10 | 10 | 17.7 | 24.1 | 0.00 | 0.00 | 0.00 | 79 | 1013.0 |
| 20260507000527 | 10 | 5 | 14.5 | 20.9 | 0.00 | 0.00 | 0.00 | 78 | 1013.1 |
| 20260507000027 | 10 | 0 | 12.9 | 20.9 | 0.00 | 0.00 | 0.00 | 77 | 1013.0 |
| 20260506235528 | 10 | 3 | 14.5 | 20.9 | 0.00 | 0.00 | 0.00 | 77 | 1013.1 |
| 20260506235027 | 10 | 29 | 12.9 | 20.9 | 0.00 | 0.00 | 0.00 | 77 | 1012.9 |
| 20260506234525 | 11 | 356 | 16.1 | 19.3 | 0.00 | 0.00 | 0.00 | 77 | 1013.0 |
| 20260506234024 | 11 | 29 | 17.7 | 22.5 | 0.00 | 0.00 | 0.00 | 76 | 1012.9 |
| 20260506233523 | 11 | 26 | 20.9 | 24.1 | 0.00 | 0.00 | 0.00 | 76 | 1012.7 |
| 20260506233025 | 11 | 6 | 12.9 | 24.1 | 0.00 | 0.00 | 0.00 | 76 | 1012.7 |
| 20260506232524 | 11 | 351 | 9.7 | 24.1 | 0.00 | 0.00 | 0.00 | 76 | 1012.7 |
| 20260506232022 | 11 | 2 | 16.1 | 24.1 | 0.00 | 0.00 | 0.00 | 76 | 1012.6 |
| 20260506231522 | 11 | 354 | 17.7 | 22.5 | 0.00 | 0.00 | 0.00 | 75 | 1012.7 |
| 20260506231300 | 11 | 354 | 12.9 | 22.5 | 0.00 | 0.00 | 0.00 | 75 | 1012.6 |
| 20260506230520 | 11 | 5 | 16.1 | 22.5 | 0.00 | 0.00 | 0.00 | 75 | 1012.6 |
| 20260506230019 | 11 | 3 | 11.3 | 22.5 | 0.00 | 0.00 | 0.00 | 74 | 1012.8 |
| 20260506225521 | 11 | 351 | 17.7 | 19.3 | 0.00 | 0.00 | 0.00 | 75 | 1012.6 |
| 20260506225020 | 11 | 13 | 11.3 | 17.7 | 0.00 | 0.00 | 0.00 | 75 | 1012.6 |
| 20260506224753 | 11 | 353 | 14.5 | 17.7 | 0.00 | 0.00 | 0.00 | 75 | 1012.5 |
| 20260506224020 | 11 | 354 | 9.7 | 19.3 | 0.00 | 0.00 | 0.00 | 75 | 1012.5 |
| 20260506223518 | 11 | 9 | 11.3 | 20.9 | 0.00 | 0.00 | 0.00 | 75 | 1012.4 |
| 20260506223016 | 11 | 353 | 17.7 | 20.9 | 0.00 | 0.00 | 0.00 | 75 | 1012.4 |
| 20260506222518 | 11 | 1 | 11.3 | 19.3 | 0.00 | 0.00 | 0.00 | 76 | 1012.5 |
| 20260506222027 | 11 | 10 | 8.0 | 11.3 | 0.00 | 0.00 | 0.00 | 77 | 1012.4 |
| 20260506222023 | 11 | 2 | 9.7 | 12.9 | 0.00 | 0.00 | 0.00 | 78 | 1012.4 |
| 20260506221016 | 11 | 359 | 6.4 | 9.7 | 0.00 | 0.00 | 0.00 | 77 | 1012.6 |
| 20260506220515 | 11 | 357 | 6.4 | 9.7 | 0.00 | 0.00 | 0.00 | 77 | 1012.4 |
| 20260506220017 | 11 | 357 | 6.4 | 8.0 | 0.00 | 0.00 | 0.00 | 77 | 1012.5 |
| 20260506215746 | 11 | 359 | 3.2 | 8.0 | 0.00 | 0.00 | 0.00 | 77 | 1012.4 |
| 20260506215012 | 11 | 350 | 4.8 | 4.8 | 0.00 | 0.00 | 0.00 | 76 | 1012.5 |
| 20260506214513 | 11 | 2 | 3.2 | 4.8 | 0.00 | 0.00 | 0.00 | 76 | 1012.2 |
| 20260506214011 | 11 | 2 | 4.8 | 4.8 | 0.00 | 0.00 | 0.00 | 75 | 1012.3 |
| 20260506213510 | 11 | 352 | 3.2 | 4.8 | 0.00 | 0.00 | 0.00 | 74 | 1012.2 |
| 20260506213009 | 11 | 0 | 3.2 | 4.8 | 0.00 | 0.00 | 0.00 | 73 | 1012.2 |
| 20260506212509 | 11 | 358 | 3.2 | 3.2 | 0.00 | 0.00 | 0.00 | 73 | 1012.2 |
| 20260506212009 | 11 | 0 | 3.2 | 3.2 | 0.00 | 0.00 | 0.00 | 72 | 1012.1 |
| 20260506211509 | 11 | 0 | 3.2 | 3.2 | 0.00 | 0.00 | 0.00 | 72 | 1012.0 |
| 20260506211009 | 11 | 356 | 3.2 | 3.2 | 0.00 | 0.00 | 0.00 | 72 | 1011.9 |
| 20260506210733 | 11 | 0 | 3.2 | 3.2 | 0.00 | 0.00 | 0.00 | 72 | 1012.0 |
| 20260506210009 | 11 | 12 | 3.2 | 4.8 | 0.00 | 0.00 | 0.00 | 72 | 1012.1 |
| 20260506205505 | 11 | 359 | 3.2 | 6.4 | 0.00 | 0.00 | 0.00 | 72 | 1012.1 |
| 20260506205007 | 11 | 0 | 1.6 | 6.4 | 0.00 | 0.00 | 0.00 | 72 | 1012.0 |
| 20260506204504 | 11 | 14 | 3.2 | 4.8 | 0.00 | 0.00 | 0.00 | 72 | 1011.9 |
| 20260506204005 | 11 | 6 | 4.8 | 4.8 | 0.00 | 0.00 | 0.00 | 71 | 1011.9 |
| 20260506203504 | 11 | 41 | 4.8 | 6.4 | 0.00 | 0.00 | 0.00 | 71 | 1011.8 |
| 20260506203006 | 11 | 21 | 3.2 | 6.4 | 0.00 | 0.00 | 0.00 | 71 | 1011.9 |
| 20260506202733 | 11 | 32 | 4.8 | 6.4 | 0.00 | 0.00 | 0.00 | 71 | 1012.1 |
| 20260506202004 | 11 | 30 | 4.8 | 6.4 | 0.00 | 0.00 | 0.00 | 70 | 1011.9 |
| 20260506201504 | 11 | 31 | 4.8 | 6.4 | 0.00 | 0.00 | 0.00 | 70 | 1011.8 |
| 20260506201001 | 11 | 55 | 6.4 | 6.4 | 0.00 | 0.00 | 0.00 | 70 | 1011.8 |
| 20260506200501 | 11 | 23 | 4.8 | 6.4 | 0.00 | 0.00 | 0.00 | 70 | 1011.7 |
| 20260506200000 | 11 | 37 | 4.8 | 6.4 | 0.00 | 0.00 | 0.00 | 69 | 1011.6 |
| 20260506195501 | 11 | 18 | 3.2 | 6.4 | 0.00 | 0.00 | 0.00 | 69 | 1011.5 |
| 20260506194959 | 11 | 52 | 3.2 | 6.4 | 0.00 | 0.00 | 0.00 | 69 | 1011.5 |
| 20260506194459 | 11 | 29 | 3.2 | 6.4 | 0.00 | 0.00 | 0.00 | 69 | 1011.6 |
| 20260506194004 | 11 | 21 | 3.2 | 4.8 | 0.00 | 0.00 | 0.00 | 68 | 1011.7 |
| 20260506193958 | 11 | 43 | 3.2 | 6.4 | 0.00 | 0.00 | 0.00 | 68 | 1011.5 |
| 20260506192958 | 12 | 21 | 4.8 | 6.4 | 0.00 | 0.00 | 0.00 | 67 | 1011.5 |
| 20260506192456 | 12 | 28 | 6.4 | 6.4 | 0.00 | 0.00 | 0.00 | 67 | 1011.4 |
| 20260506192226 | 12 | 9 | 1.6 | 6.4 | 0.00 | 0.00 | 0.00 | 67 | 1011.3 |
| 20260506191455 | 12 | 41 | 4.8 | 8.0 | 0.00 | 0.00 | 0.00 | 67 | 1011.4 |
| 20260506190956 | 12 | 73 | 3.2 | 8.0 | 0.00 | 0.00 | 0.00 | 66 | 1011.2 |
| 20260506190721 | 12 | 45 | 6.4 | 8.0 | 0.00 | 0.00 | 0.00 | 66 | 1011.1 |
| 20260506185954 | 12 | 94 | 3.2 | 6.4 | 0.00 | 0.00 | 0.00 | 66 | 1011.1 |
| 20260506185452 | 12 | 77 | 4.8 | 8.0 | 0.00 | 0.00 | 0.00 | 65 | 1010.8 |
| 20260506184952 | 12 | 79 | 4.8 | 8.0 | 0.00 | 0.00 | 0.00 | 65 | 1010.8 |
| 20260506184726 | 12 | 33 | 3.2 | 8.0 | 0.00 | 0.00 | 0.00 | 65 | 1011.0 |
| 20260506183953 | 12 | 63 | 3.2 | 9.7 | 0.00 | 0.00 | 0.00 | 65 | 1010.8 |
| 20260506183451 | 12 | 73 | 4.8 | 9.7 | 0.00 | 0.00 | 0.00 | 65 | 1010.8 |
| 20260506182951 | 12 | 78 | 4.8 | 9.7 | 0.00 | 0.00 | 0.00 | 65 | 1010.7 |
| 20260506182449 | 12 | 76 | 4.8 | 9.7 | 0.00 | 0.00 | 0.00 | 64 | 1010.6 |
| 20260506181949 | 12 | 66 | 6.4 | 9.7 | 0.00 | 0.00 | 0.00 | 65 | 1010.5 |
| 20260506181725 | 12 | 74 | 9.7 | 9.7 | 0.00 | 0.00 | 0.00 | 65 | 1010.6 |
| 20260506180949 | 12 | 47 | 3.2 | 8.0 | 0.00 | 0.00 | 0.00 | 65 | 1010.5 |
| 20260506180448 | 12 | 51 | 4.8 | 8.0 | 0.00 | 0.00 | 0.00 | 64 | 1010.5 |
| 20260506175947 | 12 | 15 | 4.8 | 11.3 | 0.00 | 0.00 | 0.00 | 64 | 1010.5 |
| 20260506175447 | 12 | 71 | 6.4 | 11.3 | 0.00 | 0.00 | 0.00 | 64 | 1010.4 |
| 20260506174945 | 12 | 78 | 9.7 | 9.7 | 0.00 | 0.00 | 0.00 | 64 | 1010.4 |
| 20260506174717 | 12 | 56 | 4.8 | 14.5 | 0.00 | 0.00 | 0.00 | 63 | 1010.3 |
| 20260506173944 | 13 | 79 | 6.4 | 16.1 | 0.00 | 0.00 | 0.00 | 63 | 1010.1 |
| 20260506173445 | 13 | 58 | 11.3 | 16.1 | 0.00 | 0.00 | 0.00 | 62 | 1010.2 |
| 20260506172945 | 13 | 40 | 6.4 | 14.5 | 0.00 | 0.00 | 0.00 | 62 | 1010.1 |
| 20260506172444 | 13 | 51 | 8.0 | 19.3 | 0.00 | 0.00 | 0.00 | 62 | 1010.1 |
| 20260506172216 | 13 | 8 | 9.7 | 24.1 | 0.00 | 0.00 | 0.00 | 61 | 1009.9 |
| 20260506171441 | 13 | 0 | 11.3 | 24.1 | 0.00 | 0.00 | 0.00 | 60 | 1010.0 |
| 20260506170942 | 13 | 4 | 11.3 | 22.5 | 0.00 | 0.00 | 0.00 | 59 | 1010.0 |
| 20260506170441 | 13 | 22 | 16.1 | 22.5 | 0.00 | 0.00 | 0.00 | 59 | 1010.0 |
| 20260506165939 | 13 | 22 | 14.5 | 22.5 | 0.00 | 0.00 | 0.00 | 60 | 1009.8 |
| 20260506165438 | 13 | 9 | 12.9 | 24.1 | 0.00 | 0.00 | 0.00 | 60 | 1009.7 |
| 20260506164940 | 13 | 22 | 17.7 | 25.7 | 0.00 | 0.00 | 0.00 | 60 | 1009.8 |
| 20260506164438 | 13 | 28 | 20.9 | 25.7 | 0.00 | 0.00 | 0.00 | 59 | 1009.8 |
| 20260506163937 | 13 | 32 | 16.1 | 24.1 | 0.00 | 0.00 | 0.00 | 59 | 1009.9 |
| 20260506163438 | 13 | 11 | 17.7 | 24.1 | 0.00 | 0.00 | 0.00 | 59 | 1009.7 |
| 20260506162933 | 14 | 20 | 16.1 | 20.9 | 0.00 | 0.00 | 0.00 | 60 | 1009.7 |
| 20260506162703 | 14 | 356 | 14.5 | 27.4 | 0.00 | 0.00 | 0.00 | 60 | 1009.6 |
| 20260506162658 | 14 | 7 | 16.1 | 20.9 | 0.00 | 0.00 | 0.00 | 60 | 1009.6 |
| 20260506161432 | 14 | 10 | 14.5 | 29.0 | 0.00 | 0.00 | 0.00 | 60 | 1009.9 |
| 20260506160931 | 14 | 4 | 16.1 | 29.0 | 0.00 | 0.00 | 0.00 | 59 | 1009.6 |
| 20260506160431 | 14 | 7 | 14.5 | 29.0 | 0.00 | 0.00 | 0.00 | 58 | 1009.6 |
| 20260506160202 | 14 | 37 | 19.3 | 27.4 | 0.00 | 0.00 | 0.00 | 58 | 1009.6 |
| 20260506155430 | 14 | 6 | 14.5 | 24.1 | 0.00 | 0.00 | 0.00 | 57 | 1009.7 |
| 20260506154930 | 14 | 356 | 14.5 | 24.1 | 0.00 | 0.00 | 0.00 | 57 | 1009.8 |
| 20260506154433 | 15 | 0 | 12.9 | 24.1 | 0.00 | 0.00 | 0.00 | 55 | 1009.7 |
| 20260506153932 | 15 | 0 | 16.1 | 32.2 | 0.00 | 0.00 | 0.00 | 57 | 1009.8 |
| 20260506153430 | 15 | 13 | 20.9 | 32.2 | 0.00 | 0.00 | 0.00 | 54 | 1009.7 |
| 20260506152931 | 16 | 4 | 17.7 | 29.0 | 0.00 | 0.00 | 0.00 | 53 | 1009.6 |
| 20260506152431 | 16 | 4 | 16.1 | 30.6 | 0.00 | 0.00 | 0.00 | 53 | 1009.6 |
| 20260506151929 | 16 | 12 | 19.3 | 32.2 | 0.00 | 0.00 | 0.00 | 52 | 1009.6 |
| 20260506151659 | 16 | 359 | 11.3 | 32.2 | 0.00 | 0.00 | 0.00 | 53 | 1009.6 |
| 20260506150929 | 16 | 10 | 20.9 | 30.6 | 0.00 | 0.00 | 0.00 | 52 | 1009.5 |
| 20260506150427 | 16 | 20 | 20.9 | 25.7 | 0.00 | 0.00 | 0.00 | 53 | 1009.4 |
| 20260506145926 | 16 | 16 | 12.9 | 29.0 | 0.00 | 0.00 | 0.00 | 53 | 1009.4 |
| 20260506145427 | 16 | 40 | 16.1 | 29.0 | 0.00 | 0.00 | 0.00 | 49 | 1009.6 |
| 20260506144925 | 16 | 12 | 20.9 | 27.4 | 0.00 | 0.00 | 0.00 | 51 | 1009.3 |
| 20260506144424 | 17 | 8 | 19.3 | 30.6 | 0.00 | 0.00 | 0.00 | 50 | 1009.3 |
| 20260506144151 | 17 | 2 | 9.7 | 30.6 | 0.00 | 0.00 | 0.00 | 49 | 1009.4 |
| 20260506143425 | 17 | 9 | 20.9 | 27.4 | 0.00 | 0.00 | 0.00 | 50 | 1009.2 |
| 20260506142923 | 17 | 5 | 19.3 | 27.4 | 0.00 | 0.00 | 0.00 | 50 | 1009.4 |
| 20260506142423 | 16 | 20 | 19.3 | 27.4 | 0.00 | 0.00 | 0.00 | 52 | 1009.4 |
| 20260506141922 | 17 | 9 | 19.3 | 27.4 | 0.00 | 0.00 | 0.00 | 54 | 1009.4 |
| 20260506141421 | 17 | 15 | 14.5 | 27.4 | 0.00 | 0.00 | 0.00 | 53 | 1009.3 |
| 20260506140923 | 17 | 7 | 19.3 | 27.4 | 0.00 | 0.00 | 0.00 | 54 | 1009.2 |
| 20260506140420 | 17 | 16 | 17.7 | 27.4 | 0.00 | 0.00 | 0.00 | 53 | 1009.4 |
| 20260506135920 | 17 | 44 | 9.7 | 24.1 | 0.00 | 0.00 | 0.00 | 54 | 1009.2 |
| 20260506135421 | 17 | 8 | 19.3 | 25.7 | 0.00 | 0.00 | 0.00 | 52 | 1009.2 |
| 20260506134919 | 17 | 11 | 17.7 | 27.4 | 0.00 | 0.00 | 0.00 | 55 | 1009.2 |
| 20260506134651 | 17 | 31 | 19.3 | 29.0 | 0.00 | 0.00 | 0.00 | 54 | 1009.2 |
| 20260506134150 | 17 | 23 | 27.4 | 30.6 | 0.00 | 0.00 | 0.00 | 56 | 1009.1 |
| 20260506133418 | 17 | 357 | 25.7 | 30.6 | 0.00 | 0.00 | 0.00 | 55 | 1009.3 |
| 20260506133150 | 17 | 27 | 16.1 | 30.6 | 0.00 | 0.00 | 0.00 | 53 | 1009.2 |
| 20260506132417 | 17 | 7 | 19.3 | 33.8 | 0.00 | 0.00 | 0.00 | 55 | 1009.1 |
| 20260506131915 | 17 | 31 | 16.1 | 45.1 | 0.00 | 0.00 | 0.00 | 54 | 1009.2 |
| 20260506131648 | 17 | 23 | 27.4 | 45.1 | 0.00 | 0.00 | 0.00 | 52 | 1009.2 |
| 20260506130916 | 17 | 11 | 25.7 | 37.0 | 0.00 | 0.00 | 0.00 | 54 | 1009.2 |
| 20260506130415 | 17 | 0 | 29.0 | 37.0 | 0.00 | 0.00 | 0.00 | 52 | 1009.1 |
| 20260506125912 | 17 | 34 | 24.1 | 30.6 | 0.00 | 0.00 | 0.00 | 54 | 1009.1 |
| 20260506125411 | 17 | 8 | 17.7 | 30.6 | 0.00 | 0.00 | 0.00 | 55 | 1008.9 |
| 20260506124913 | 17 | 9 | 16.1 | 32.2 | 0.00 | 0.00 | 0.00 | 55 | 1008.9 |
| 20260506124640 | 16 | 1 | 16.1 | 32.2 | 0.00 | 0.00 | 0.00 | 58 | 1009.0 |
| 20260506124139 | 16 | 8 | 14.5 | 29.0 | 0.00 | 0.00 | 0.00 | 60 | 1009.1 |
| 20260506123410 | 15 | 4 | 20.9 | 30.6 | 0.00 | 0.00 | 0.00 | 61 | 1008.9 |
| 20260506122909 | 15 | 14 | 19.3 | 30.6 | 0.00 | 0.00 | 0.00 | 58 | 1008.9 |
| 20260506122632 | 15 | 2 | 19.3 | 33.8 | 0.00 | 0.00 | 0.00 | 60 | 1009.0 |
| 20260506121909 | 14 | 0 | 17.7 | 33.8 | 0.00 | 0.00 | 0.00 | 60 | 1008.9 |
| 20260506121409 | 14 | 15 | 30.6 | 35.4 | 0.00 | 0.00 | 0.00 | 61 | 1008.9 |
| 20260506120907 | 14 | 31 | 19.3 | 35.4 | 0.00 | 0.00 | 0.00 | 62 | 1008.8 |
| 20260506120406 | 15 | 13 | 24.1 | 41.8 | 0.00 | 0.00 | 0.00 | 60 | 1008.9 |
| 20260506115906 | 15 | 1 | 27.4 | 43.5 | 0.00 | 0.00 | 0.00 | 58 | 1009.0 |
| 20260506115405 | 16 | 0 | 35.4 | 43.5 | 0.00 | 0.00 | 0.00 | 55 | 1009.1 |
| 20260506114906 | 17 | 28 | 20.9 | 37.0 | 0.00 | 0.00 | 0.00 | 56 | 1008.8 |
| 20260506114405 | 18 | 2 | 27.4 | 41.8 | 0.00 | 0.00 | 0.00 | 57 | 1008.7 |
| 20260506113904 | 17 | 6 | 17.7 | 41.8 | 0.00 | 0.00 | 0.00 | 56 | 1008.7 |
| 20260506113403 | 17 | 12 | 35.4 | 40.2 | 0.00 | 0.00 | 0.00 | 54 | 1008.7 |
| 20260506113136 | 16 | 10 | 16.1 | 40.2 | 0.00 | 0.00 | 0.00 | 55 | 1008.9 |
| 20260506112631 | 16 | 21 | 19.3 | 40.2 | 0.00 | 0.00 | 0.00 | 59 | 1008.9 |
| 20260506111902 | 15 | 7 | 17.7 | 33.8 | 0.00 | 0.00 | 0.00 | 60 | 1008.9 |
| 20260506111401 | 15 | 19 | 27.4 | 33.8 | 0.00 | 0.00 | 0.00 | 57 | 1008.9 |
| 20260506110901 | 15 | 15 | 25.7 | 30.6 | 0.00 | 0.00 | 0.00 | 63 | 1008.7 |
| 20260506110628 | 14 | 10 | 17.7 | 29.0 | 0.00 | 0.00 | 0.00 | 62 | 1008.7 |
| 20260506105901 | 14 | 17 | 22.5 | 30.6 | 0.00 | 0.00 | 0.00 | 62 | 1008.8 |
| 20260506105401 | 14 | 353 | 22.5 | 32.2 | 0.00 | 0.00 | 0.00 | 61 | 1008.7 |
| 20260506105127 | 14 | 18 | 24.1 | 32.2 | 0.00 | 0.00 | 0.00 | 64 | 1008.8 |
| 20260506104400 | 14 | 14 | 19.3 | 33.8 | 0.00 | 0.00 | 0.00 | 63 | 1008.9 |
| 20260506103858 | 13 | 5 | 20.9 | 33.8 | 0.00 | 0.00 | 0.00 | 64 | 1008.9 |
| 20260506103622 | 13 | 354 | 20.9 | 32.2 | 0.00 | 0.00 | 0.00 | 66 | 1008.9 |
| 20260506103126 | 13 | 359 | 29.0 | 32.2 | 0.00 | 0.00 | 0.00 | 65 | 1008.8 |
| 20260506102356 | 13 | 28 | 19.3 | 33.8 | 0.00 | 0.00 | 0.00 | 66 | 1008.7 |
| 20260506101855 | 13 | 17 | 16.1 | 33.8 | 0.00 | 0.00 | 0.00 | 66 | 1008.7 |
| 20260506101355 | 14 | 5 | 24.1 | 35.4 | 0.00 | 0.00 | 0.00 | 68 | 1008.6 |
| 20260506100854 | 14 | 352 | 24.1 | 35.4 | 0.00 | 0.00 | 0.00 | 68 | 1008.6 |
| 20260506100356 | 14 | 5 | 20.9 | 33.8 | 0.00 | 0.00 | 0.00 | 69 | 1008.7 |
| 20260506100125 | 14 | 9 | 25.7 | 37.0 | 0.00 | 0.00 | 0.00 | 67 | 1008.7 |
| 20260506095623 | 14 | 359 | 22.5 | 40.2 | 0.00 | 0.00 | 0.00 | 67 | 1008.5 |
| 20260506094853 | 15 | 349 | 33.8 | 40.2 | 0.00 | 0.00 | 0.00 | 67 | 1008.5 |
| 20260506094628 | 15 | 18 | 32.2 | 37.0 | 0.00 | 0.00 | 0.00 | 68 | 1008.6 |
| 20260506093853 | 15 | 20 | 27.4 | 37.0 | 0.00 | 0.00 | 0.00 | 67 | 1008.6 |